Wetbulb
72.11 72.50 72.50 72.35 73.24 73.79 73.57 74.06 74.81 75.69 75.65 75.44 75.58 75.43 75.28 75.48 76.39 76.35 76.90 76.30 75.74 75.78 75.98 75.89 75.99 76.77 74.98 75.18 75.24 74.92 74.09 73.65 71.38 72.73 75.18 75.26 74.06 73.20 71.53 71.15 69.92 70.15 67.94
72.41 72.58 72.36 73.07 73.24 72.94 73.41 73.82 74.98 74.96 75.87 75.80 75.95 75.70 75.68 75.64 76.19 75.79 75.16 75.17 75.57 75.31 75.48 75.69 75.44 75.03 76.18 76.19 75.28 75.67 75.13 76.63 73.24 72.77 74.13 74.34 73.97 72.98 72.27 70.54 69.42 68.84 68.65
72.45 72.03 72.11 72.20 72.61 72.69 73.24 74.01 74.78 74.69 75.07 75.42 75.97 75.93 75.84 76.16 75.94 75.78 75.79 75.52 75.67 75.70 75.75 75.69 75.45 75.55 75.34 74.71 75.03 74.89 77.01 76.75 76.04 73.72 75.28 75.58 73.77 72.39 70.94 70.12 69.11 68.88 67.58
72.58 72.19 72.06 72.37 72.53 72.62 73.32 74.06 74.42 75.11 74.77 75.01 75.44 75.49 76.17 75.78 75.93 75.90 75.72 75.76 75.77 75.48 76.05 75.89 76.00 75.72 75.46 76.12 75.31 75.58 75.28 74.56 76.26 75.86 74.52 75.12 72.89 72.74 71.27 70.44 68.78 67.23 67.33
72.78 72.54 72.63 73.31 73.52 73.52 73.52 73.92 74.36 74.76 74.97 75.30 75.01 75.13 75.46 76.11 74.88 75.46 75.58 75.37 75.58 75.54 75.77 76.11 76.03 75.17 71.66 72.91 76.05 75.91 76.38 74.43 73.60 74.97 73.87 75.18 73.79 70.09 70.58 72.25 69.46 70.42 66.62
71.24 71.30 71.05 72.45 72.98 73.18 73.47 73.52 74.14 74.39 74.70 74.65 74.56 74.53 74.44 74.05 68.61 66.88 71.58 74.75 75.51 75.35 74.54 75.67 76.42 72.63 72.85 68.54 67.84 68.51 72.76 75.81 74.70 74.22 74.90 71.79 73.78 73.95 72.72 71.52 69.98 67.83 66.90
68.52 69.08 68.24 69.49 70.76 72.16 72.90 73.10 73.60 73.95 74.33 74.34 74.37 74.79 74.39 74.96 66.54 65.74 67.61 74.13 75.50 75.93 75.34 75.74 75.70 75.11 73.47 75.82 70.16 66.71 66.43 64.64 67.08 74.07 73.58 73.72 73.18 73.53 73.23 70.78 69.92 69.41 68.95
69.46 68.41 68.68 68.84 68.40 68.25 69.75 71.40 71.95 72.32 72.92 73.98 74.24 74.66 74.52 74.55 65.78 64.33 65.96 73.79 75.02 75.45 75.73 76.04 76.24 75.95 75.82 75.28 75.64 74.14 73.65 71.89 69.75 71.08 72.75 73.36 71.60 70.96 70.77 70.56 68.78 68.08 63.19
67.49 68.39 68.10 68.99 68.48 68.85 67.19 68.03 69.41 70.73 70.77 71.57 72.98 73.75 74.20 74.94 60.95 61.47 64.94 71.61 72.88 74.09 75.47 75.63 74.75 74.79 63.74 63.64 74.20 74.34 73.16 66.84 58.91 57.93 57.38 57.21 57.32 57.63 60.28 67.41 67.49 64.98 61.86
67.20 67.30 68.06 68.69 66.76 66.99 66.47 66.08 67.25 67.95 68.27 69.23 69.73 69.19 64.95 66.72 57.80 58.59 64.36 70.52 71.36 72.60 72.83 68.65 59.81 62.61 58.88 59.45 67.84 69.74 69.19 66.70 62.22 60.00 60.32 59.74 60.58 59.89 59.11 63.61 64.70 65.43 59.39
67.98 68.16 68.57 67.62 66.78 66.57 66.60 66.46 66.78 67.43 67.50 65.85 63.81 62.78 62.97 62.63 60.29 56.78 57.68 69.40 70.44 70.35 70.07 68.13 65.62 57.40 57.58 58.05 59.86 69.42 67.47 63.97 59.66 59.37 59.44 56.98 55.47 54.94 55.16 55.55 57.16 57.54 57.17
67.88 67.48 66.21 67.10 66.01 65.42 65.42 65.28 65.30 64.83 63.60 61.97 59.78 59.27 59.59 59.10 56.96 56.15 56.92 58.39 62.75 69.21 65.60 61.49 58.02 53.95 53.24 55.13 59.94 55.93 55.48 56.92 57.41 56.88 54.53 53.10 51.88 51.49 53.15 53.06 54.41 55.27 56.60
64.50 63.34 62.30 61.97 62.43 64.27 65.28 64.81 63.80 63.45 62.14 60.99 60.52 58.95 58.17 58.43 57.70 54.48 55.65 56.76 58.65 60.67 59.48 55.40 53.05 52.34 52.59 54.81 54.17 54.83 56.65 58.48 57.39 55.23 53.68 52.90 53.57 52.87 53.45 52.95 54.32 54.46 56.83
62.22 61.57 60.37 59.52 57.14 57.63 58.26 60.99 62.40 62.42 61.84 60.81 59.81 58.67 57.90 57.38 57.02 57.20 57.36 57.32 56.52 57.60 57.46 58.53 57.50 56.48 56.03 57.38 58.34 59.44 60.08 60.10 60.22 57.12 53.93 53.24 53.84 53.92 52.70 53.27 51.95 52.66 53.03
59.43 59.44 58.81 58.18 57.02 55.18 51.77 51.46 56.26 52.93 53.56 60.93 60.50 60.26 59.70 57.36 54.65 48.78 51.52 56.68 57.20 55.43 57.02 58.20 57.92 57.20 56.64 56.98 57.14 57.72 58.20 58.39 56.40 54.59 53.59 52.56 51.96 51.77 51.24 52.89 54.82 55.81 53.30
58.89 59.10 57.91 58.29 56.94 55.04 54.85 53.22 46.36 45.69 44.24 43.42 44.56 54.81 54.27 48.38 45.30 44.23 44.45 45.72 47.53 49.53 57.32 56.80 56.11 55.91 55.53 55.89 56.01 56.32 56.74 56.24 55.58 54.69 53.47 51.97 51.46 51.80 52.76 53.87 55.13 56.71 53.91
59.28 58.06 56.24 55.09 54.71 53.53 54.23 56.11 54.41 50.08 44.78 42.86 42.21 42.93 44.43 44.78 43.49 43.36 44.09 45.54 47.22 52.22 59.34 58.66 58.61 58.25 57.41 56.93 56.72 56.62 54.82 55.67 57.41 55.14 55.41 51.46 51.13 51.75 50.37 51.60 54.55 55.46 54.86
58.17 54.29 58.29 57.00 56.13 55.43 55.36 55.50 56.04 57.44 57.71 55.73 45.92 44.68 41.45 41.68 42.06 42.46 43.72 48.36 57.34 55.85 56.59 56.28 56.04 55.79 55.66 54.24 53.07 53.64 52.36 52.16 51.86 51.11 51.82 54.05 54.44 54.46 53.94 54.03 54.01 55.35 54.65
59.40 59.01 59.08 58.52 57.93 56.54 57.71 57.22 56.46 56.45 55.98 57.21 56.88 50.68 48.04 42.64 42.82 43.54 46.05 60.06 58.96 57.87 57.91 57.06 56.51 54.71 53.91 53.77 52.94 52.56 52.80 53.70 53.97 53.83 54.32 54.29 54.57 54.32 53.72 53.88 54.12 48.68 51.93
61.31 57.52 59.49 61.42 59.91 59.98 58.68 58.40 58.33 58.30 57.81 57.76 57.98 57.61 56.19 54.72 59.05 59.63 58.51 58.41 58.02 57.64 57.84 57.33 56.97 57.06 57.02 56.26 55.28 54.68 53.43 52.60 53.23 53.38 53.19 53.91 54.46 54.47 53.84 53.77 54.42 53.86 53.89
60.78 60.96 58.74 61.10 60.88 59.96 59.31 58.63 58.52 57.60 56.71 56.09 55.14 54.49 47.72 57.39 57.65 58.89 58.65 58.42 58.71 58.35 58.39 57.95 57.25 57.01 56.74 55.94 55.21 54.37 53.87 53.06 52.83 53.13 53.12 53.37 54.28 53.79 55.13 55.08 54.67 54.86 54.91
59.68 60.73 61.10 61.17 61.03 60.63 60.51 60.98 60.62 60.63 60.37 59.59 58.36 54.87 43.05 54.31 56.27 55.61 57.17 58.41 58.98 59.81 60.89 60.78 60.19 58.91 57.60 56.72 55.60 55.04 53.94 53.45 53.44 53.17 53.23 54.01 54.37 54.09 54.69 54.35 54.27 54.37 53.91
61.25 59.14 59.03 59.53 59.74 56.60 59.57 60.21 59.54 58.95 59.57 60.32 59.92 58.79 55.44 55.55 55.20 56.22 57.05 57.74 58.22 58.59 59.10 59.11 59.75 59.49 58.65 57.64 57.26 57.04 55.73 54.47 54.84 54.60 53.86 54.28 54.07 53.88 54.50 53.82 53.37 52.50 51.87
61.70 60.77 60.48 58.96 58.05 58.03 58.59 58.87 58.56 52.31 57.58 59.06 59.94 59.83 59.59 58.79 57.86 56.39 56.71 58.12 58.39 58.59 59.05 59.34 59.60 59.39 59.43 58.44 58.00 57.62 57.55 57.15 56.74 56.01 55.27 54.43 53.85 50.98 53.59 52.70 52.06 50.62 50.85
60.87 60.58 60.34 60.37 60.02 59.42 59.72 59.61 59.79 59.90 59.27 58.80 58.72 58.53 59.16 59.38 59.57 58.87 57.53 57.22 57.93 57.72 57.98 59.18 59.46 59.42 59.62 59.24 58.35 58.01 51.04 44.01 54.25 48.16 56.21 54.86 53.91 53.40 52.67 52.20 51.83 51.20 50.27
60.41 60.37 60.63 60.72 60.60 60.44 60.30 60.08 60.05 60.19 59.91 59.99 60.02 59.97 59.67 59.41 59.32 59.29 58.91 58.04 56.89 57.41 57.78 58.59 59.28 59.63 59.59 59.58 59.06 50.85 37.81 36.77 47.84 38.13 54.31 54.68 53.20 53.08 52.83 52.27 51.37 51.69 51.02
MSLP
1014.60 1015.21 1015.64 1016.02 1016.61 1017.01 1017.18 1017.51 1017.72 1017.73 1017.91 1018.04 1018.21 1018.37 1018.43 1018.47 1018.62 1018.95 1019.20 1019.26 1019.32 1019.48 1019.65 1019.71 1019.67 1019.72 1019.42 1019.42 1019.32 1019.25 1019.16 1019.26 1018.88 1018.44 1019.15 1019.66 1019.80 1019.85 1020.00 1020.30 1020.50 1020.32 1020.53
1013.87 1014.55 1014.99 1015.52 1016.05 1016.30 1016.71 1016.91 1017.34 1017.35 1017.34 1017.58 1017.79 1018.01 1018.18 1018.19 1018.28 1018.45 1018.47 1018.57 1018.79 1018.86 1018.99 1019.21 1019.23 1019.13 1019.26 1019.18 1019.05 1019.04 1018.87 1019.12 1019.03 1018.70 1018.66 1019.29 1019.50 1019.69 1019.76 1020.19 1020.15 1019.92 1020.10
1013.68 1013.99 1014.48 1014.92 1015.41 1015.74 1016.04 1016.44 1016.78 1017.03 1016.99 1017.12 1017.55 1017.72 1017.75 1017.85 1017.86 1017.98 1018.08 1018.18 1018.26 1018.34 1018.40 1018.56 1018.64 1018.77 1018.80 1018.62 1018.78 1018.63 1018.70 1018.86 1018.86 1018.88 1018.76 1018.95 1019.11 1019.34 1019.64 1019.90 1020.03 1019.92 1020.04
1013.37 1013.69 1013.91 1014.31 1014.67 1015.06 1015.53 1015.86 1016.17 1016.47 1016.78 1016.93 1017.04 1017.18 1017.32 1017.59 1017.55 1017.57 1017.74 1017.82 1017.81 1017.90 1018.03 1018.13 1018.20 1018.22 1018.27 1018.28 1018.30 1018.34 1018.31 1018.32 1018.30 1018.47 1018.33 1018.41 1018.60 1018.99 1019.14 1018.92 1019.12 1019.53 1019.39
1013.30 1013.59 1013.54 1013.92 1014.34 1014.58 1014.93 1015.29 1015.61 1015.89 1016.05 1016.38 1016.60 1016.72 1016.96 1017.20 1017.13 1017.26 1017.38 1017.35 1017.43 1017.50 1017.52 1017.60 1017.62 1017.65 1017.82 1017.92 1018.01 1017.83 1018.02 1018.06 1017.78 1017.83 1017.85 1017.91 1017.96 1018.71 1018.24 1018.20 1018.39 1018.19 1019.11
1013.55 1013.77 1013.76 1013.94 1014.22 1014.38 1014.46 1014.73 1015.05 1015.40 1015.71 1015.91 1016.03 1016.18 1016.29 1016.43 1016.65 1016.90 1017.09 1016.94 1016.95 1017.09 1017.07 1017.04 1017.07 1017.14 1017.35 1017.45 1017.53 1017.63 1017.74 1017.79 1017.76 1017.65 1017.52 1017.22 1017.44 1017.69 1017.81 1017.95 1018.09 1018.15 1017.93
1013.73 1013.71 1013.83 1013.93 1014.10 1014.14 1014.39 1014.50 1014.56 1014.84 1015.08 1015.31 1015.45 1015.69 1015.83 1016.04 1016.23 1016.49 1016.71 1016.76 1016.69 1016.66 1016.52 1016.44 1016.44 1016.52 1016.76 1016.83 1016.81 1017.23 1017.42 1017.61 1017.68 1017.49 1017.25 1017.08 1017.12 1017.27 1017.51 1017.84 1018.04 1018.14 1017.98
1013.75 1013.77 1013.68 1014.02 1014.55 1014.51 1014.42 1014.50 1014.67 1014.84 1015.04 1015.04 1015.09 1015.26 1015.40 1015.47 1015.71 1015.96 1016.21 1016.42 1016.20 1015.97 1016.07 1016.00 1016.17 1016.14 1016.33 1016.33 1016.37 1016.70 1016.95 1017.42 1017.82 1017.52 1017.34 1017.33 1017.63 1017.71 1017.89 1017.94 1018.23 1018.30 1018.92
1013.75 1013.89 1014.10 1014.33 1014.53 1014.60 1014.76 1014.59 1014.79 1014.84 1015.03 1015.17 1015.03 1015.05 1015.12 1015.28 1015.64 1015.83 1016.00 1015.98 1015.72 1015.46 1015.47 1015.76 1015.99 1016.09 1016.49 1016.70 1016.49 1016.27 1016.64 1017.69 1018.50 1018.53 1018.63 1018.80 1018.97 1018.88 1018.51 1017.90 1017.92 1018.54 1018.97
1013.81 1013.80 1013.92 1014.13 1014.29 1014.55 1014.74 1014.90 1014.35 1014.34 1015.06 1015.42 1015.20 1015.42 1015.38 1015.58 1015.77 1015.76 1015.86 1015.79 1015.54 1015.36 1015.60 1016.13 1016.52 1016.81 1016.84 1016.92 1016.79 1016.68 1016.81 1017.44 1017.94 1018.21 1018.65 1018.55 1018.65 1018.76 1018.82 1018.31 1018.17 1018.24 1019.05
1013.18 1013.40 1013.56 1013.89 1014.22 1014.11 1014.11 1014.19 1014.63 1014.95 1014.98 1015.13 1015.23 1015.96 1015.97 1015.91 1016.06 1015.86 1015.75 1015.59 1015.42 1015.43 1015.70 1016.07 1016.52 1016.78 1016.79 1017.08 1017.01 1016.76 1016.87 1017.19 1017.99 1018.27 1018.51 1019.03 1019.30 1019.59 1019.55 1019.41 1019.29 1019.09 1019.33
1013.37 1013.62 1013.56 1014.10 1014.22 1014.27 1014.33 1014.61 1014.66 1014.73 1014.99 1015.31 1015.67 1015.84 1016.28 1016.52 1016.55 1016.20 1015.62 1015.76 1015.70 1015.69 1016.20 1016.77 1017.13 1017.13 1017.02 1017.06 1017.17 1017.16 1017.29 1017.66 1018.11 1018.64 1019.17 1019.41 1020.02 1020.05 1020.23 1020.33 1019.81 1020.00 1019.69
1013.80 1014.10 1014.45 1014.71 1014.73 1014.92 1014.87 1015.00 1015.01 1015.16 1015.53 1015.94 1016.44 1016.67 1016.78 1016.86 1016.90 1016.68 1016.46 1016.09 1015.85 1015.87 1016.47 1017.22 1017.52 1017.82 1017.84 1017.53 1017.58 1017.71 1017.78 1018.11 1018.52 1018.91 1019.35 1020.14 1020.33 1020.64 1020.56 1020.57 1020.10 1020.10 1020.30
1014.32 1014.94 1015.19 1015.25 1015.58 1015.80 1015.69 1015.29 1015.38 1015.78 1016.29 1016.60 1016.63 1016.96 1017.11 1017.18 1017.20 1017.19 1016.86 1016.69 1016.59 1016.59 1016.97 1017.15 1017.38 1017.96 1018.22 1018.50 1018.22 1017.93 1018.27 1018.37 1018.51 1019.06 1019.81 1020.31 1020.62 1020.65 1020.74 1020.65 1020.43 1020.09 1019.96
1014.95 1015.35 1015.51 1015.75 1016.06 1016.31 1016.61 1016.86 1016.65 1017.23 1017.34 1017.08 1017.01 1017.06 1017.47 1017.62 1017.85 1017.73 1017.50 1017.16 1017.02 1016.96 1017.03 1017.42 1016.98 1018.15 1017.96 1018.59 1018.41 1018.52 1018.82 1018.81 1018.79 1019.44 1020.07 1020.49 1020.62 1020.86 1020.85 1020.51 1020.17 1019.92 1019.66
1015.24 1015.51 1015.75 1016.01 1016.57 1016.74 1016.87 1017.21 1017.85 1017.69 1017.52 1017.47 1017.44 1017.47 1017.97 1018.14 1018.24 1017.91 1017.87 1017.89 1017.92 1017.87 1017.45 1017.69 1017.56 1017.64 1017.95 1018.43 1018.50 1018.75 1019.02 1019.21 1019.30 1019.62 1020.19 1020.50 1020.58 1020.50 1020.49 1020.17 1019.84 1019.46 1019.46
1015.40 1015.69 1015.98 1016.13 1016.41 1016.56 1016.77 1016.80 1017.31 1018.27 1018.06 1018.06 1018.10 1018.08 1018.17 1018.30 1018.50 1018.44 1018.50 1018.18 1017.84 1017.33 1017.46 1017.71 1017.98 1018.07 1018.26 1018.51 1018.64 1018.96 1019.32 1019.49 1019.77 1020.02 1020.17 1020.40 1020.40 1020.31 1020.31 1020.18 1019.88 1019.68 1019.35
1015.43 1015.68 1015.92 1016.43 1016.58 1016.73 1016.94 1017.11 1017.21 1017.37 1017.52 1018.26 1018.66 1018.59 1018.61 1018.52 1018.67 1018.41 1018.34 1018.06 1017.66 1017.66 1017.69 1017.61 1017.80 1018.17 1018.37 1018.67 1019.03 1019.01 1019.51 1019.73 1019.79 1019.96 1020.24 1019.75 1019.55 1019.49 1019.53 1019.37 1019.43 1019.43 1019.29
1015.52 1015.76 1015.98 1016.21 1016.34 1016.60 1016.68 1016.84 1016.86 1017.03 1017.32 1017.46 1017.90 1018.48 1018.65 1018.59 1018.49 1018.19 1018.06 1017.42 1017.36 1017.41 1017.53 1017.46 1017.74 1018.18 1018.31 1018.73 1018.96 1019.01 1019.43 1019.48 1019.69 1019.64 1019.83 1019.71 1019.60 1019.53 1019.59 1019.45 1019.42 1019.67 1019.72
1015.13 1015.69 1015.50 1015.56 1016.04 1016.24 1016.22 1016.09 1016.24 1016.43 1016.63 1016.79 1017.10 1017.49 1018.15 1018.17 1017.86 1017.71 1017.68 1017.59 1017.30 1017.26 1017.41 1017.42 1017.83 1018.14 1018.39 1018.51 1018.67 1018.75 1018.64 1019.02 1019.24 1019.44 1019.61 1019.77 1019.96 1019.93 1019.63 1019.66 1019.54 1019.57 1019.68
1014.69 1015.16 1015.47 1015.30 1015.52 1015.72 1015.82 1015.87 1016.04 1016.11 1016.16 1016.35 1016.58 1017.18 1017.71 1017.39 1017.32 1017.32 1017.29 1017.38 1017.30 1017.32 1017.45 1017.61 1017.86 1017.90 1018.28 1018.52 1018.72 1018.80 1018.80 1018.83 1018.94 1018.99 1018.98 1019.21 1019.39 1019.51 1019.75 1019.92 1020.01 1019.88 1019.74
1014.49 1014.63 1014.82 1014.94 1015.25 1015.48 1015.51 1015.65 1015.81 1015.88 1015.95 1016.05 1016.25 1016.94 1017.78 1017.70 1017.21 1017.08 1017.07 1017.05 1017.06 1017.31 1017.37 1017.58 1017.53 1017.67 1017.87 1018.12 1018.52 1018.34 1018.36 1018.57 1018.81 1018.88 1019.06 1018.97 1019.07 1019.39 1019.50 1019.60 1019.86 1020.00 1020.03
1014.29 1014.43 1014.63 1014.86 1015.05 1015.31 1015.44 1015.41 1015.59 1015.74 1015.64 1015.73 1015.91 1016.13 1016.78 1016.73 1016.74 1016.80 1016.83 1016.84 1016.96 1016.96 1017.05 1017.21 1017.30 1017.40 1017.73 1018.01 1018.22 1018.23 1018.22 1018.25 1018.34 1018.55 1018.86 1018.85 1018.94 1019.21 1019.48 1019.61 1019.74 1019.95 1020.09
1013.93 1013.99 1014.16 1014.43 1014.72 1014.80 1014.79 1014.90 1015.08 1015.34 1015.18 1015.19 1015.36 1015.56 1015.75 1016.02 1016.22 1016.50 1016.60 1016.54 1016.65 1016.59 1016.69 1016.92 1017.01 1017.07 1017.45 1017.67 1017.95 1018.14 1018.16 1018.19 1018.35 1018.55 1018.69 1018.70 1018.73 1019.15 1019.30 1019.59 1019.74 1019.96 1019.97
1013.52 1013.61 1013.75 1013.87 1014.00 1014.16 1014.25 1014.34 1014.30 1014.36 1014.52 1014.64 1014.70 1014.86 1015.01 1015.34 1015.61 1015.82 1015.91 1016.09 1016.23 1016.34 1016.36 1016.60 1016.61 1016.91 1017.18 1017.33 1017.29 1017.36 1017.66 1018.58 1018.60 1018.52 1018.50 1018.47 1018.59 1018.96 1019.14 1019.41 1019.67 1019.88 1020.04
1013.17 1013.33 1013.52 1013.67 1013.80 1013.85 1013.84 1013.80 1013.84 1013.90 1013.88 1013.83 1013.98 1014.25 1014.48 1014.63 1014.77 1015.01 1015.35 1015.58 1015.65 1015.66 1015.78 1015.95 1016.07 1016.31 1016.49 1016.73 1017.06 1017.49 1018.23 1018.47 1018.44 1018.76 1018.51 1018.53 1018.65 1018.88 1019.13 1019.45 1019.61 1019.63 1019.76
Wind_Speed
14 14 14 13 13 12 11 10 10 8 8 9 9 10 10 10 9 8 9 8 8 7 6 6 7 6 6 5 5 5 5 5 7 4 3 1 4 5 4 4 5 4 5
15 13 13 12 13 13 12 11 10 10 9 9 9 10 10 11 10 10 11 9 10 9 9 9 9 6 8 7 7 7 7 6 6 8 4 3 5 5 5 5 5 4 3
13 13 12 13 13 14 14 12 11 10 10 9 8 9 10 10 9 10 11 11 11 10 10 10 10 9 8 8 8 7 6 5 6 7 5 4 3 4 5 6 6 5 5
12 13 13 13 14 14 14 14 13 11 10 9 10 11 10 10 8 7 9 11 11 10 11 10 10 10 11 10 9 9 9 8 6 7 7 6 5 3 5 6 6 6 6
10 11 12 11 12 12 13 13 13 12 11 11 10 10 10 7 8 9 10 11 11 10 10 10 11 12 10 10 7 9 8 9 8 6 6 5 5 3 7 3 6 5 6
6 8 6 8 10 12 12 12 12 12 11 12 12 12 12 9 9 10 10 11 11 10 11 11 12 11 11 12 12 13 9 9 9 6 5 8 8 6 5 7 6 6 6
3 3 4 4 8 10 9 10 10 11 11 12 13 12 13 14 10 12 14 12 11 11 12 12 11 10 10 12 11 6 4 4 5 8 9 8 8 6 6 5 7 6 7
5 4 2 4 5 5 5 5 5 5 8 10 11 12 13 12 10 12 9 12 11 12 11 12 11 12 10 9 9 8 9 6 3 5 6 6 4 4 5 2 1 2 3
4 6 7 9 9 6 5 4 1 1 3 6 8 10 12 11 1 4 6 8 11 12 10 7 7 8 10 7 9 10 7 4 6 9 12 10 9 7 4 4 5 3 2
4 4 5 6 4 5 4 5 3 3 5 4 4 2 2 4 4 3 5 4 8 6 1 5 8 5 5 5 3 4 6 7 6 7 6 6 4 6 9 4 4 4 3
3 3 5 5 6 5 4 3 5 6 4 3 4 2 3 2 3 2 1 4 4 4 3 2 3 5 5 9 9 4 2 7 5 4 4 4 5 6 5 6 7 3 2
1 4 4 4 3 2 3 3 3 3 4 4 3 2 2 3 5 0 5 3 3 3 3 3 4 4 4 2 3 9 10 9 5 5 5 5 3 4 4 5 7 5 5
5 5 6 6 6 5 5 5 4 5 4 4 2 2 2 2 2 7 5 5 8 7 6 8 8 6 6 11 10 10 7 5 5 4 5 2 3 2 2 2 5 4 5
6 6 5 7 7 6 5 5 5 5 3 3 3 3 2 2 3 3 2 4 9 9 10 7 10 8 9 5 4 5 4 3 4 5 5 4 3 3 2 1 1 1 5
5 6 6 6 6 6 7 5 5 4 4 3 3 3 2 2 1 2 5 2 3 6 7 3 5 3 5 2 4 4 3 4 5 5 5 4 3 2 2 3 1 2 4
5 4 4 4 4 5 6 7 11 9 8 9 9 5 4 6 4 7 9 8 7 3 3 2 3 4 5 3 4 4 4 4 4 4 4 4 4 2 1 2 2 2 4
5 4 4 4 3 3 3 4 5 5 10 12 11 10 8 7 7 8 5 5 6 3 4 4 3 4 4 3 3 3 3 3 5 5 5 5 4 2 3 3 3 2 3
6 6 4 4 3 3 2 2 2 2 3 3 8 7 7 7 6 6 5 3 3 5 4 4 5 4 4 4 2 4 4 3 3 3 4 5 4 3 3 3 3 2 4
5 4 4 4 4 4 3 4 4 4 3 4 4 3 4 4 3 3 5 2 3 4 3 4 4 4 4 4 4 4 3 3 2 3 2 2 2 1 1 1 2 4 0
6 6 4 5 5 4 4 4 4 4 3 3 3 3 4 2 2 2 2 2 3 4 3 4 3 3 3 3 4 4 5 5 4 4 3 2 1 1 1 1 1 3 3
4 6 4 4 4 4 4 4 3 3 3 3 3 3 4 1 2 2 3 3 2 3 3 3 3 3 3 3 3 3 3 3 3 3 3 3 2 2 0 0 1 1 1
4 5 5 5 4 4 4 3 3 2 2 2 3 4 6 5 2 3 3 4 3 3 2 2 2 3 3 3 3 3 3 3 3 3 3 3 3 3 2 2 1 2 2
5 6 5 5 4 3 4 4 4 4 4 4 4 4 5 5 4 4 4 4 4 4 4 4 3 4 4 4 4 3 3 3 4 3 4 3 3 3 2 1 2 3 3
5 5 5 5 5 5 4 4 6 6 5 5 5 5 5 5 5 6 5 5 4 4 4 4 4 5 6 5 5 5 4 4 4 4 5 3 3 4 2 3 3 4 4
6 6 5 4 4 5 5 5 5 7 6 6 6 5 5 6 7 7 7 7 6 6 6 5 5 7 8 9 7 7 6 7 6 0 4 5 6 6 4 4 4 4 5
7 7 7 6 6 6 6 6 5 6 7 7 7 6 6 6 6 7 7 8 7 7 7 6 7 9 8 8 9 7 7 10 9 7 5 5 5 6 5 6 5 4 3
Wind_Direction
207 210 213 208 211 219 220 231 236 227 221 223 226 229 224 222 215 218 233 236 225 229 232 234 242 244 247 231 240 245 246 239 265 270 271 212 223 220 185 206 192 218 146
212 207 212 217 216 218 224 221 230 229 236 227 220 218 223 228 222 222 225 226 232 239 240 234 245 239 237 241 242 247 248 236 254 268 288 219 241 212 221 223 235 226 218
211 212 214 218 220 223 223 222 218 228 228 233 237 234 229 233 233 232 237 235 232 238 247 244 246 243 248 257 246 247 248 245 228 251 261 211 225 209 207 228 228 229 228
206 212 215 216 220 224 224 221 215 220 230 233 239 239 241 243 236 240 228 234 243 241 246 244 251 248 246 247 246 251 253 258 241 234 252 243 221 200 238 247 226 223 230
214 216 213 220 227 220 218 221 225 224 229 237 239 243 254 245 240 228 232 241 248 250 251 253 251 252 249 248 256 255 255 250 257 259 254 237 225 205 237 234 247 252 216
211 226 225 227 227 227 215 213 218 226 233 235 236 243 245 247 243 223 246 254 251 249 258 258 254 247 244 236 236 248 259 253 252 257 267 267 266 246 236 244 250 235 245
185 169 168 218 228 221 224 217 219 226 233 236 238 239 243 248 223 220 217 247 248 248 253 250 251 253 237 254 228 220 182 160 245 271 265 266 279 267 264 222 238 242 253
218 199 169 187 196 170 183 187 177 216 241 243 244 242 246 248 221 225 230 248 256 248 250 254 252 258 258 256 245 219 223 206 272 264 268 294 291 300 269 307 321 232 75
245 227 224 210 201 192 185 176 204 242 275 268 260 256 250 255 100 208 197 239 252 252 252 261 283 278 36 357 258 247 226 158 74 70 77 76 65 40 331 258 224 187 162
163 224 236 200 187 192 181 209 198 246 261 283 277 297 325 142 85 128 210 228 248 249 247 126 73 34 353 324 253 258 218 197 184 150 133 117 62 61 31 22 321 247 131
330 286 234 211 208 204 216 202 203 213 203 143 105 40 26 124 120 106 332 214 230 224 165 142 84 349 311 289 276 260 232 131 142 148 106 68 49 38 36 39 23 18 101
348 102 76 100 94 100 122 106 118 124 118 111 100 82 40 12 354 212 138 177 162 159 99 84 55 48 52 322 221 112 111 117 120 111 110 108 83 68 39 10 50 30 48
89 84 84 75 63 57 107 114 102 99 103 117 136 108 82 25 18 26 349 139 121 109 109 110 112 86 96 77 89 110 114 116 125 119 112 91 90 109 64 31 66 85 79
108 104 86 84 79 64 50 45 70 75 89 116 122 127 108 59 29 352 41 76 89 98 120 113 96 80 70 82 79 73 63 96 113 107 103 104 112 93 84 3 38 53 112
101 108 106 97 83 82 60 30 51 52 2 82 93 97 95 103 54 353 351 84 112 126 124 114 108 94 86 67 65 64 73 84 98 106 117 114 107 129 174 201 210 125 100
106 92 86 102 113 111 118 102 50 61 58 48 40 68 79 66 67 73 89 82 61 20 52 84 81 110 117 131 105 90 84 96 100 114 116 127 129 124 227 219 211 134 123
126 118 103 94 99 109 109 118 118 92 77 60 47 57 69 110 77 66 66 79 39 53 88 94 104 104 109 114 108 90 96 97 131 142 147 149 169 152 185 216 198 219 158
111 117 118 130 129 119 110 88 86 111 112 94 58 63 55 76 70 52 7 241 103 77 106 116 111 111 107 98 83 110 124 129 115 132 180 174 176 179 186 184 186 194 160
141 134 136 133 143 133 137 151 129 133 142 132 144 138 86 73 40 16 307 61 94 102 107 108 113 126 127 136 138 132 137 138 152 164 166 164 130 209 141 134 93 10 193
124 126 154 144 146 150 136 113 112 117 121 118 131 111 143 207 152 120 79 96 107 102 110 114 124 132 138 148 150 148 140 159 159 161 141 132 130 264 157 146 157 173 196
141 145 120 144 144 136 127 117 115 121 117 112 102 108 48 299 135 169 170 163 156 134 133 131 141 144 151 152 160 165 172 159 167 161 163 166 155 189 189 198 224 204 177
161 159 163 157 153 166 162 163 172 178 177 174 153 143 169 244 230 207 204 197 184 192 181 191 191 169 153 160 173 174 164 162 147 156 159 157 159 157 136 149 195 223 202
174 179 179 183 188 167 194 207 213 219 216 210 203 187 188 218 222 223 211 209 201 204 198 213 213 195 173 182 183 183 177 163 154 159 168 167 162 174 203 252 242 235 241
199 204 199 196 195 209 214 228 222 223 234 215 213 218 221 223 225 222 229 217 215 217 219 219 216 198 176 197 189 200 196 179 175 178 197 184 173 156 224 239 240 254 253
214 215 219 218 217 218 241 257 244 228 220 225 225 226 229 223 221 218 212 213 211 210 207 205 197 189 196 199 204 203 135 158 222 227 199 208 203 187 208 224 233 237 245
217 217 225 228 232 240 247 252 247 235 236 233 229 228 233 234 235 228 223 220 216 213 213 208 210 215 210 212 218 206 158 183 196 200 226 234 224 222 223 228 204 235 247